Wind_Speed
70 70 71 71 71 72 72 73 74 74 75 76 76 76 77 77 78 78 78 78 77 77 76 76 75 75 74 74 73 73 73 73 73 73 74 74 75 75 77 78 78 79 80 81 82 84 85 86 86 86 88 88 88 89 89 88 87 87 87 88 90 91 92 91 92 91 91 91 91 90 90 91 92 91 89 88 88 88 87 88 90 90 90 90 90 90 90 90
69 70 70 71 71 72 72 72 73 73 74 74 75 75 76 76 77 77 78 78 78 77 76 76 76 75 74 74 73 73 73 73 72 72 73 73 74 74 75 76 77 78 78 78 79 81 81 82 82 83 85 86 87 87 87 87 86 86 87 88 91 93 92 91 91 91 91 91 91 91 90 91 91 91 89 89 90 89 89 90 90 90 90 90 90 89 90 90
66 67 69 70 71 71 72 72 72 73 73 73 74 74 75 75 76 77 77 78 77 77 77 77 76 75 75 74 74 74 73 72 72 72 72 72 73 73 74 75 75 76 76 77 78 78 78 78 79 80 82 83 84 84 85 85 85 85 85 87 91 92 91 90 90 90 90 90 90 90 90 90 90 90 89 89 90 90 90 90 89 90 90 90 90 90 90 91
63 65 66 68 69 70 71 72 72 73 73 73 73 73 74 74 75 76 76 77 77 77 77 77 76 76 75 75 75 74 73 72 72 72 72 72 72 72 73 73 74 74 74 75 76 76 76 76 77 77 78 80 80 80 82 82 82 82 83 86 90 90 88 88 88 88 88 88 88 88 88 88 88 89 89 88 88 88 89 88 88 88 89 89 89 90 90 90
60 62 64 65 67 68 69 70 72 72 73 73 73 73 74 74 74 75 76 76 76 76 76 76 76 76 75 75 75 74 73 72 72 72 72 71 72 72 72 73 73 73 73 74 74 74 74 74 74 75 76 77 77 77 79 79 79 78 80 84 86 86 86 85 85 84 84 85 85 85 85 86 87 88 88 87 86 87 87 87 87 87 88 89 89 90 90 91
57 59 61 63 64 66 67 68 69 70 72 73 73 73 74 74 74 75 75 75 75 76 76 76 76 75 75 75 75 74 73 72 72 71 71 71 71 72 72 72 72 73 73 73 73 72 72 72 73 73 74 74 74 75 76 75 74 74 77 80 81 81 82 82 81 81 81 81 82 83 84 86 87 87 87 85 85 85 86 86 87 87 88 89 90 90 90 90
55 56 58 60 62 63 64 66 67 68 69 70 71 72 73 74 74 75 75 75 75 75 75 75 75 75 75 74 74 74 73 72 71 71 71 71 71 71 71 72 72 72 73 72 72 71 71 71 72 72 73 72 72 73 72 70 69 70 72 75 76 76 78 79 78 78 78 79 81 82 84 86 86 85 84 84 84 84 85 86 87 88 89 89 89 89 88 87
52 53 55 57 59 60 62 63 64 65 66 67 69 70 71 72 73 74 74 74 74 74 74 74 74 74 74 74 74 73 72 71 70 70 70 70 70 70 71 71 71 72 72 72 71 71 71 72 72 72 72 70 70 70 68 66 66 67 70 72 73 74 76 77 76 76 77 78 80 82 84 85 83 82 81 82 83 83 84 85 86 86 86 85 84 83 82 80
49 51 52 54 56 57 59 60 62 63 64 65 66 67 68 69 70 71 72 73 73 73 73 73 73 73 73 73 72 71 70 70 69 69 69 69 69 69 70 70 70 71 71 72 72 72 72 72 71 70 70 69 69 69 67 65 66 67 69 70 71 73 75 75 74 74 75 75 76 79 82 81 78 76 76 77 78 79 80 81 81 81 80 79 78 76 75 74
47 48 50 51 53 55 56 58 59 60 61 62 63 64 65 66 67 68 68 69 70 70 70 70 70 71 71 71 70 69 69 68 67 67 67 68 68 68 68 69 69 70 71 71 72 72 72 71 70 69 69 69 69 69 67 66 67 68 69 69 70 72 73 73 72 72 71 71 72 75 77 75 72 70 70 71 72 74 75 75 76 75 74 73 72 71 70 70
45 46 47 49 51 52 54 55 56 57 58 59 60 61 62 63 63 64 65 66 66 67 67 67 67 68 68 68 68 67 67 66 66 66 65 65 66 66 66 67 68 69 70 71 71 71 71 70 70 70 70 71 71 70 69 68 68 68 69 69 69 70 70 71 71 70 68 67 69 71 71 69 67 65 65 66 68 70 71 72 73 72 70 69 68 69 69 68
43 44 45 47 48 50 52 53 54 55 56 57 57 58 59 59 60 61 62 62 63 63 64 64 65 65 65 65 65 65 64 63 64 64 64 64 64 64 64 65 66 67 68 69 69 70 70 69 70 70 71 71 71 71 70 70 69 69 69 69 70 70 71 73 72 69 66 65 67 68 67 68 66 63 63 64 66 68 69 70 70 69 68 66 66 66 66 65
41 42 43 45 46 48 49 51 52 53 54 54 55 55 56 57 57 58 59 59 60 60 61 61 62 63 62 62 63 62 61 61 63 62 63 63 62 62 63 63 64 65 66 67 67 68 68 68 68 69 70 71 71 70 70 70 70 69 69 69 70 71 72 73 71 68 66 66 68 68 68 70 67 63 62 63 64 66 67 68 68 67 65 63 63 62 61 61
40 40 42 43 44 46 47 48 49 51 51 52 53 53 54 54 55 56 56 57 57 58 58 59 60 60 59 59 60 60 59 59 61 61 61 61 61 62 62 62 62 63 63 64 65 65 65 66 67 68 69 70 70 69 69 68 69 69 69 69 70 71 72 72 70 70 68 68 69 67 67 69 66 62 62 62 62 64 65 65 65 64 62 60 59 58 58 58
38 39 40 41 42 44 45 46 47 48 49 50 51 51 52 53 53 54 54 55 55 56 56 57 57 57 56 56 58 58 57 57 58 59 59 59 60 60 61 61 61 62 62 62 63 63 63 64 65 67 67 68 67 67 67 67 68 69 69 68 69 70 70 70 70 69 68 67 67 65 65 66 64 61 60 59 60 62 62 62 61 59 57 56 56 56 55 54
37 37 38 39 40 42 43 44 45 46 47 48 49 50 50 51 52 53 53 53 54 55 55 55 55 54 54 54 56 56 55 55 56 57 57 57 58 58 59 59 60 60 61 61 61 61 62 63 64 65 65 66 65 66 66 66 67 68 67 66 66 67 67 68 67 66 65 65 65 63 63 63 61 59 57 57 58 59 59 57 56 55 53 52 53 53 51 50
36 36 36 37 38 40 41 42 43 44 45 47 47 48 49 50 51 52 52 52 53 54 54 54 54 52 52 54 54 55 54 54 54 54 55 55 56 56 57 57 58 59 59 60 60 60 61 62 62 63 63 64 64 64 64 65 65 64 63 62 63 63 64 65 64 63 63 62 62 60 59 58 57 55 54 54 55 55 55 54 53 51 50 49 50 50 49 47
34 35 35 35 36 38 39 40 42 43 44 45 46 47 48 49 50 50 51 52 52 52 52 52 52 52 52 53 53 54 54 53 53 53 53 53 54 54 55 55 56 57 57 58 58 58 59 60 60 61 61 62 62 62 63 62 61 60 60 60 60 61 62 61 61 61 60 59 58 55 54 54 52 51 50 50 51 51 51 50 49 49 48 47 47 48 47 46
33 34 34 34 35 36 37 38 40 41 42 43 44 45 46 48 48 49 50 51 51 51 51 51 52 51 52 53 53 53 53 52 52 51 51 51 52 52 52 53 54 54 55 56 56 57 57 57 58 59 59 59 60 60 60 58 57 58 58 59 59 58 58 59 59 58 56 56 54 51 50 50 49 48 48 48 48 48 48 47 47 47 46 45 45 45 45 44
32 32 33 33 33 34 35 36 37 39 41 42 43 44 45 46 48 49 50 50 50 51 51 52 52 51 52 54 53 52 51 51 51 50 50 50 50 50 50 51 51 52 52 53 54 55 55 55 56 56 56 56 56 56 55 55 56 56 57 57 56 55 54 55 54 53 52 52 50 48 48 47 47 48 47 46 46 46 46 46 45 44 43 43 43 43 42 41
31 31 32 32 33 33 33 34 36 37 39 41 42 43 44 46 48 49 50 50 50 51 52 52 52 52 54 54 53 51 51 51 50 50 50 49 49 48 49 49 49 49 49 50 51 52 52 52 52 52 52 53 53 52 52 53 54 54 55 54 52 51 51 51 51 51 50 50 49 47 46 45 45 47 47 45 45 45 45 44 43 41 41 42 41 41 41 41
30 31 31 31 32 33 33 33 34 36 38 39 40 42 44 46 48 49 49 49 51 51 52 53 53 53 54 54 53 52 51 51 49 50 50 48 47 47 47 47 46 47 47 48 48 48 48 48 48 48 48 49 49 49 49 51 52 52 51 50 49 48 48 49 50 50 49 48 47 45 45 44 44 46 46 45 45 44 44 44 42 41 41 41 41 40 41 41
29 29 30 30 31 32 33 33 34 35 37 38 39 42 44 46 47 48 48 49 51 51 53 54 53 53 54 54 54 53 52 51 50 50 50 48 47 47 47 46 45 45 46 46 45 45 45 45 45 45 45 45 46 46 47 48 49 49 48 47 47 47 47 47 48 47 47 46 46 45 45 45 45 46 46 46 45 44 43 42 41 41 39 39 40 41 41 42
29 28 29 30 30 31 32 33 34 35 36 37 39 41 43 44 45 46 48 49 50 50 53 54 53 54 54 53 53 53 52 51 51 51 50 49 48 48 47 45 45 46 46 45 44 43 43 42 42 43 43 44 44 44 45 47 48 48 47 46 45 45 45 46 46 46 46 46 46 46 46 46 47 47 46 45 45 44 42 41 41 40 38 38 40 41 42 43
29 28 28 29 29 29 31 33 35 35 35 37 39 40 41 41 43 46 48 49 50 51 53 54 54 54 53 52 54 55 54 52 52 52 51 50 50 49 46 46 47 47 46 44 43 42 42 42 42 42 43 43 43 44 45 46 48 48 46 45 44 45 45 45 45 45 46 47 46 46 46 46 46 47 45 44 43 43 41 40 41 41 39 39 39 41 42 41
29 29 28 28 28 28 29 32 35 35 35 38 39 39 39 39 42 45 46 49 50 51 53 54 54 53 51 53 56 56 55 54 53 52 52 52 52 50 48 49 50 48 45 44 43 43 43 42 42 43 43 43 44 44 45 46 47 48 47 45 44 45 45 45 45 45 46 47 46 45 46 46 47 46 44 42 41 41 40 40 41 41 40 39 39 40 41 40
30 29 29 28 28 28 28 30 33 36 37 38 38 37 38 39 40 43 44 47 49 51 53 54 54 53 52 54 55 55 56 55 53 53 54 54 52 51 49 50 51 48 45 44 45 45 43 43 43 44 44 44 44 45 46 46 46 48 48 46 44 44 45 45 45 45 45 45 45 45 46 47 47 46 43 41 41 40 40 40 41 42 41 40 39 39 40 40
31 30 29 29 28 28 29 29 31 34 37 38 37 36 38 39 39 41 42 45 48 49 51 53 53 53 52 53 55 55 56 56 55 55 54 53 52 52 51 53 51 47 44 45 47 46 43 44 44 44 45 45 45 46 46 45 47 49 48 46 44 44 44 45 45 45 45 45 45 45 46 47 48 47 44 42 41 41 40 39 40 41 41 39 39 38 39 38
32 31 31 30 29 28 29 30 30 32 35 37 38 37 38 39 40 40 40 43 46 47 49 50 52 53 52 52 55 56 56 56 56 56 54 53 53 53 54 54 51 47 45 47 48 47 45 45 45 44 45 46 46 47 45 45 47 48 47 46 45 44 45 45 45 45 45 45 46 45 45 47 47 47 46 43 41 40 39 39 39 40 40 39 39 38 38 37
32 32 32 31 30 29 29 30 30 31 33 34 37 39 39 39 40 40 41 43 45 45 46 48 50 51 50 52 54 55 55 55 56 55 54 54 53 54 54 53 51 49 47 48 49 49 48 46 45 45 46 47 48 47 45 45 46 46 46 46 46 45 45 45 46 45 45 45 46 44 44 46 47 48 48 44 40 39 39 38 39 40 40 40 39 38 37 37
33 33 33 33 32 31 30 29 30 31 32 32 35 39 40 40 40 40 43 45 45 45 46 46 47 48 49 50 52 53 53 53 54 54 53 53 53 54 54 53 52 50 49 49 50 50 48 47 46 47 47 48 48 47 45 45 46 46 46 47 47 46 45 45 45 44 44 44 44 44 44 45 46 48 49 45 39 39 39 38 39 40 39 39 38 37 37 36
34 34 35 34 33 33 30 29 31 32 32 32 33 36 39 40 41 43 46 48 46 45 46 45 44 45 46 47 48 49 50 50 51 52 52 51 51 52 53 52 51 50 49 49 50 49 48 47 47 46 47 47 47 46 46 46 46 46 46 46 46 45 44 44 44 43 43 43 44 44 45 45 46 47 49 47 41 38 38 38 38 39 38 38 37 37 37 37
35 36 36 35 35 34 31 30 32 32 32 33 34 35 36 39 43 48 50 50 48 47 46 45 44 44 43 44 45 46 46 47 49 50 50 49 49 50 51 51 50 49 49 49 50 49 48 47 46 46 46 46 46 47 47 46 45 45 45 45 46 45 44 43 43 43 44 44 44 45 45 46 46 45 48 48 42 38 38 38 38 38 38 37 37 37 37 37
36 37 38 37 36 35 31 31 33 33 32 33 34 34 34 36 44 51 53 51 50 48 46 46 44 43 43 44 45 45 44 45 46 47 47 47 47 48 49 50 48 48 48 48 49 48 47 47 46 45 45 45 46 47 46 45 44 45 45 45 45 44 43 44 44 45 45 45 44 44 45 46 45 43 45 48 43 39 39 38 38 38 38 38 38 37 37 37
38 39 40 40 38 35 32 32 34 34 33 33 34 34 35 38 44 50 52 51 50 48 47 48 47 45 45 45 45 45 43 43 43 44 44 44 46 47 48 48 46 46 46 46 46 46 46 47 45 45 46 46 47 47 45 45 45 46 45 45 45 44 44 45 46 45 45 45 44 44 45 45 44 42 43 45 44 40 40 39 39 39 39 38 38 37 35 33
40 41 42 42 39 35 32 33 35 36 35 33 33 35 38 42 44 45 47 48 49 49 49 50 50 48 46 46 47 46 43 43 43 42 41 42 44 45 45 45 43 43 45 44 44 44 45 45 44 44 46 47 47 46 46 47 46 46 46 46 46 46 46 47 47 46 45 46 46 45 46 45 43 41 41 43 43 41 41 41 41 40 40 39 39 37 33 27
42 43 44 43 40 36 35 37 37 38 37 34 32 36 40 43 44 45 45 44 46 49 50 51 51 51 49 49 49 46 44 45 44 43 42 42 44 45 44 44 42 42 44 43 43 42 43 44 43 44 46 47 47 48 48 48 47 47 48 48 47 47 47 47 48 47 47 48 48 47 47 45 43 41 40 41 42 42 42 43 42 41 41 41 41 40 37 35
46 45 44 44 42 39 40 41 39 39 39 35 34 37 40 44 46 47 45 43 43 44 48 52 52 52 51 51 52 48 45 46 46 45 44 43 44 46 46 45 43 43 44 43 42 41 41 43 43 44 46 46 47 49 49 48 47 49 50 48 48 49 49 48 49 49 48 49 49 47 46 45 43 41 40 41 42 43 44 45 44 43 43 44 44 44 44 44
49 47 45 46 45 43 43 43 41 41 40 38 38 39 42 45 48 47 44 44 43 41 44 48 51 52 51 52 53 49 46 47 47 47 46 43 43 46 46 45 43 44 45 44 42 41 42 45 44 46 48 48 49 51 51 50 50 51 50 49 50 51 50 49 49 50 49 49 49 47 46 45 43 42 41 41 43 44 46 46 46 46 46 47 47 48 49 48
52 48 47 48 47 46 46 45 44 43 42 41 42 43 44 46 48 47 44 44 43 42 42 43 45 49 51 52 52 50 49 49 48 48 48 46 45 45 45 45 44 45 45 44 43 43 44 47 47 48 51 51 51 52 53 52 51 51 51 50 51 51 50 48 49 50 49 49 49 48 47 46 44 44 43 43 44 46 48 48 48 49 49 49 50 51 51 51
54 50 49 51 50 49 48 48 47 45 45 45 45 46 46 47 48 48 44 43 43 42 41 40 39 43 47 50 51 51 51 51 50 50 50 49 48 47 46 46 46 46 46 46 46 46 46 49 51 52 53 54 54 54 54 54 52 52 53 52 50 50 49 48 49 49 49 50 50 49 48 47 46 46 46 46 47 48 49 49 50 51 51 50 52 53 54 53
56 52 51 53 53 52 51 50 49 48 48 48 48 48 47 47 49 49 45 43 43 42 41 39 38 39 42 45 49 51 52 52 52 52 52 51 51 50 48 48 48 47 47 48 48 48 48 51 54 55 56 56 56 55 55 55 54 54 54 52 50 49 48 49 50 50 51 52 51 50 49 47 47 48 48 48 48 49 50 50 51 52 51 51 53 55 56 55
57 54 54 55 55 54 54 53 51 51 51 52 51 50 49 49 51 52 46 42 42 42 40 38 38 39 39 41 44 48 51 53 53 53 53 53 53 53 51 51 50 49 49 49 50 49 50 51 55 57 57 57 56 56 56 55 54 55 55 53 52 51 51 52 52 52 52 53 53 53 51 50 50 51 51 50 50 50 51 52 53 53 53 53 54 56 57 58
59 56 56 57 58 57 57 55 54 55 55 54 52 51 51 51 53 54 49 43 42 42 40 39 39 40 40 40 41 43 46 50 52 53 54 54 55 55 54 53 52 51 51 51 51 51 51 52 54 56 58 57 56 55 55 55 54 55 55 53 53 54 54 54 55 55 55 55 55 55 54 53 53 54 54 53 53 53 53 54 55 55 55 55 56 57 57 59
58 57 57 59 61 61 60 58 58 59 59 56 55 54 54 54 55 56 52 46 44 43 41 40 41 42 42 42 42 42 43 45 47 50 53 54 55 56 55 53 53 53 53 53 54 54 54 54 55 57 59 59 57 56 57 58 57 57 56 54 54 55 56 57 57 58 58 58 58 58 57 56 56 56 56 55 55 55 56 56 57 57 57 57 57 57 58 59
54 53 54 58 62 63 62 62 62 62 61 59 58 57 55 55 57 57 54 49 47 45 43 42 43 44 44 44 44 44 44 44 44 46 49 52 54 55 54 53 53 54 54 55 56 56 57 56 57 59 60 61 60 59 59 61 61 61 61 59 58 59 59 59 60 61 61 62 62 62 61 60 60 59 58 58 58 59 59 59 59 59 59 59 59 60 60 61
47 47 49 54 60 62 62 62 63 64 63 61 59 57 56 57 58 57 56 53 50 48 46 45 45 45 46 45 46 46 46 45 44 45 46 48 50 51 51 51 52 52 53 54 55 55 56 56 57 59 60 61 61 61 61 62 63 64 65 64 63 63 62 62 63 63 64 64 65 65 65 64 64 63 63 63 63 63 63 62 62 62 62 62 62 63 63 64
42 42 45 49 54 58 59 59 60 63 62 60 59 58 58 59 60 59 58 56 54 51 50 49 48 47 47 47 48 49 48 47 46 45 45 46 47 47 47 47 48 49 50 51 52 52 53 53 53 54 56 57 58 60 60 61 62 64 66 66 65 64 64 64 64 65 65 66 68 68 67 67 66 65 65 65 65 65 64 64 64 64 64 64 64 64 64 65
38 39 42 45 48 53 55 56 58 60 59 58 59 59 59 60 61 61 59 58 57 55 53 52 51 50 50 49 50 51 50 49 47 46 46 46 47 47 46 46 47 48 49 50 51 51 51 51 50 51 52 53 54 56 56 57 60 61 62 64 64 63 63 64 64 66 66 68 69 69 69 69 68 67 66 65 65 64 64 64 64 64 65 65 65 64 65 65
35 36 39 41 43 47 50 53 56 58 57 56 56 57 57 59 61 61 60 60 59 57 55 54 53 53 52 51 50 51 52 52 50 49 49 49 49 49 48 48 48 48 49 51 52 52 52 52 51 51 52 52 52 53 54 55 57 58 59 59 59 57 57 57 59 60 62 64 66 67 68 68 67 66 66 65 65 65 65 65 64 64 64 64 64 64 65 65
31 33 35 37 39 42 45 49 53 56 56 54 53 54 54 57 59 61 61 61 60 59 57 56 55 55 55 53 52 51 52 53 52 52 51 51 51 51 50 50 50 50 51 52 53 54 54 54 53 53 53 53 53 53 54 55 57 57 57 56 55 53 52 51 51 53 55 57 60 62 63 64 64 64 64 65 65 65 65 65 65 64 64 64 64 65 65 65
26 28 30 32 34 37 41 44 48 52 54 52 51 51 53 55 57 59 59 59 59 59 58 58 57 57 56 56 55 53 53 54 54 55 54 54 53 53 52 53 53 54 54 54 55 55 55 55 55 54 54 54 54 54 55 56 57 56 56 55 55 55 53 52 51 51 52 53 54 56 57 59 60 60 61 62 63 63 64 64 64 64 64 64 65 65 66 66
Wind_Direction
256 254 253 252 251 250 250 249 249 249 249 249 249 249 249 249 249 249 250 250 251 251 251 252 252 252 253 253 253 253 253 253 254 254 255 255 255 256 256 255 255 254 254 254 254 255 255 255 256 256 256 257 257 257 258 258 258 258 259 259 259 260 260 261 262 264 265 265 265 266 266 267 267 267 267 268 268 267 267 267 268 269 270 271 272 272 273 273
255 254 253 252 251 250 249 249 249 249 249 249 248 248 248 248 249 249 249 250 250 251 251 252 252 252 253 253 253 254 254 254 254 254 255 255 255 256 256 256 256 256 256 256 255 255 255 256 256 256 256 256 256 257 258 258 258 258 259 259 260 260 261 262 263 264 264 265 265 266 266 266 267 267 267 267 267 267 268 269 269 270 271 272 272 273 273 273
254 253 253 252 251 250 250 249 249 248 248 248 248 248 248 248 248 249 249 249 250 250 251 251 252 252 253 253 253 254 254 254 254 254 255 255 255 256 256 257 257 257 257 257 256 256 257 257 256 256 257 257 257 257 258 258 258 258 259 259 260 261 262 262 263 263 264 265 265 266 266 266 267 267 266 267 268 269 270 270 271 271 271 272 272 273 273 273
254 253 252 251 251 250 250 249 249 248 248 248 248 248 248 248 248 248 249 249 249 250 250 251 252 252 252 253 253 253 254 254 254 255 255 255 256 256 256 257 257 257 257 257 257 257 257 257 257 257 257 257 257 258 258 258 258 259 259 260 261 262 262 262 263 263 264 265 265 266 266 266 266 267 267 268 269 270 271 271 271 272 272 273 273 273 273 273
253 252 251 251 250 250 250 249 249 248 248 248 247 247 247 247 247 248 248 249 249 250 250 251 251 252 252 253 253 253 253 253 254 254 255 255 255 256 256 256 257 257 257 257 258 258 258 258 258 258 258 258 258 258 258 259 259 260 260 261 261 262 262 262 263 264 264 265 265 266 266 266 266 267 268 269 270 271 271 272 272 272 273 273 273 273 273 274
253 252 251 250 250 249 249 249 248 248 248 248 248 247 247 247 247 247 248 248 249 249 250 250 251 251 252 252 253 253 253 253 254 254 254 254 255 255 255 256 256 257 257 258 258 258 258 258 258 258 258 258 259 259 259 260 261 261 261 261 262 262 263 263 263 263 264 264 265 265 265 265 266 267 268 269 270 271 271 272 272 272 272 272 273 273 275 275
254 252 251 250 249 249 248 248 248 247 247 247 247 247 247 247 247 247 247 248 248 249 249 250 251 251 251 252 252 253 253 253 254 254 254 254 254 254 255 255 255 256 257 257 258 258 258 258 258 258 259 260 260 261 262 262 262 262 261 261 262 262 262 262 262 263 263 264 264 264 264 265 266 268 270 271 272 272 272 272 272 272 272 273 274 275 276 277
255 253 251 250 249 248 248 247 247 246 246 246 247 247 247 247 247 247 247 247 248 248 249 249 250 251 251 252 252 252 253 253 253 254 254 254 254 254 254 254 255 255 256 256 257 257 257 258 258 259 261 262 262 262 262 262 261 261 260 261 261 262 262 262 263 263 263 264 264 265 265 266 268 270 272 272 273 273 273 273 273 273 273 274 275 276 277 277
256 254 252 251 249 248 248 247 246 246 245 245 246 246 246 246 246 247 247 247 247 248 248 249 250 250 251 251 252 252 252 252 253 253 254 254 254 254 254 254 254 255 255 256 256 256 257 258 259 261 262 262 261 261 261 261 260 260 260 261 261 262 262 264 264 264 265 265 266 266 267 268 270 272 273 273 273 273 273 273 274 274 274 275 276 276 277 277
257 256 254 252 250 249 248 247 246 245 245 245 245 245 245 245 246 246 246 246 247 247 248 248 249 250 250 250 251 252 252 252 252 252 253 253 254 254 254 254 254 254 255 255 255 256 257 258 259 260 260 260 260 260 260 260 259 260 260 261 262 263 264 265 265 265 266 266 267 267 268 270 272 272 272 272 273 273 273 273 273 273 274 276 277 278 277 277
258 257 255 253 251 249 248 247 246 246 245 244 244 244 244 244 245 245 245 245 246 246 247 247 248 249 249 250 250 251 251 252 252 252 252 253 253 254 254 254 254 254 254 255 256 256 257 258 258 258 259 259 259 260 260 260 260 260 261 262 263 264 265 265 265 265 266 268 268 269 270 272 271 271 271 272 272 273 273 272 273 273 275 276 277 277 278 278
260 258 257 254 252 250 248 247 246 245 245 244 244 243 243 243 243 244 244 244 245 245 246 246 247 248 248 249 250 250 251 251 251 251 251 252 253 253 254 254 254 255 255 255 256 256 257 257 258 258 259 259 260 260 260 260 261 261 262 263 263 264 264 264 265 267 268 269 269 269 270 270 270 270 271 272 272 272 272 272 273 274 275 276 276 277 278 279
261 260 258 256 253 251 249 247 246 245 244 244 243 243 243 243 243 243 243 243 244 244 245 245 246 247 248 249 250 250 250 250 251 251 251 252 252 253 253 254 254 255 255 256 256 257 257 258 258 258 259 259 260 260 261 261 262 262 262 262 263 263 264 265 267 268 268 266 266 267 268 269 270 271 271 271 270 271 271 271 273 274 275 276 277 277 278 278
262 261 260 257 254 252 250 248 246 245 244 243 243 243 242 242 242 242 242 243 243 244 244 245 246 247 248 249 250 250 249 250 251 251 251 252 252 253 253 254 254 255 256 256 256 257 257 257 257 258 258 259 259 260 261 261 262 261 261 261 262 263 264 266 267 267 266 265 266 268 268 269 270 270 269 269 268 268 269 270 272 274 275 276 277 277 277 277
263 263 261 259 256 253 250 248 247 245 244 243 243 242 242 242 241 241 242 242 243 243 244 245 245 246 247 248 249 250 249 249 250 251 251 252 252 253 253 254 254 255 255 256 256 256 256 257 257 257 258 259 259 260 260 260 260 260 260 261 262 263 264 265 265 265 266 266 266 266 266 267 268 268 267 267 266 267 268 270 271 273 275 276 276 275 275 276
264 264 263 261 257 254 251 249 247 245 244 243 242 242 241 241 240 240 241 241 242 243 243 244 245 246 247 248 249 250 249 249 250 251 251 251 252 253 253 254 254 255 255 256 256 256 256 256 257 257 258 259 259 259 259 259 259 260 261 261 262 263 263 263 263 264 264 264 264 264 265 266 267 267 266 265 265 267 268 269 271 273 274 275 274 274 275 276
265 264 264 262 259 256 252 250 248 246 244 243 242 241 241 240 240 240 240 241 241 242 243 244 245 245 246 247 248 249 249 248 249 250 251 251 252 252 253 253 254 254 255 255 256 256 256 256 256 257 257 257 258 258 258 258 258 260 261 261 260 260 260 260 262 262 262 262 263 264 264 265 265 265 265 264 265 266 268 269 271 272 272 271 272 273 274 274
265 265 264 263 260 257 254 251 248 246 244 243 242 241 240 240 239 239 239 240 241 242 243 244 244 244 245 246 247 247 248 248 248 248 249 250 251 251 252 253 253 254 254 254 255 255 255 255 255 255 256 256 256 257 257 258 259 260 259 258 257 257 258 259 260 260 261 261 261 262 262 263 263 263 263 263 264 265 268 270 270 270 270 270 272 273 274 274
266 265 264 263 262 258 255 252 249 246 245 243 242 241 240 239 239 238 239 239 240 241 242 242 243 243 244 245 245 246 247 247 247 248 248 249 250 251 252 252 253 253 253 254 254 254 253 253 253 254 255 255 256 256 257 258 258 256 256 255 256 257 258 259 259 260 260 260 260 260 260 261 261 261 261 262 264 265 266 267 267 269 271 272 273 273 275 276
267 265 264 263 262 260 257 254 250 247 245 243 242 241 240 238 238 237 237 238 239 240 240 240 241 241 242 243 243 244 245 246 246 247 247 248 249 250 251 252 252 253 253 253 253 253 252 253 253 254 254 255 255 256 256 256 254 254 254 255 255 256 257 257 258 258 258 258 258 258 257 258 260 261 261 261 262 263 263 265 266 269 271 272 272 272 274 274
269 266 265 263 262 260 257 255 251 248 245 243 242 240 239 238 237 236 236 237 238 238 239 239 239 239 239 241 242 243 243 244 245 246 247 247 248 250 251 252 252 253 253 252 252 252 252 253 253 254 254 254 254 255 254 254 253 253 254 254 254 254 253 254 254 255 255 255 256 256 256 257 259 261 260 259 259 260 261 263 265 266 268 268 269 270 271 271
271 268 265 264 262 260 258 255 252 249 246 243 242 240 238 237 236 236 236 237 237 238 238 239 238 238 239 241 242 242 242 243 244 245 247 247 248 250 251 251 252 252 252 251 251 252 252 253 253 253 253 253 253 253 252 252 252 252 252 253 252 251 251 252 253 254 255 256 256 256 256 256 256 257 258 258 258 258 260 262 263 264 265 266 268 269 269 269
274 270 267 264 263 260 258 255 252 249 246 244 242 240 238 237 237 237 237 237 238 238 239 239 238 239 239 240 242 242 242 243 243 244 246 247 248 249 250 251 252 251 251 251 251 252 252 252 252 253 252 252 252 251 251 252 252 251 251 250 250 250 250 251 252 254 255 256 257 257 256 255 254 253 255 257 259 260 261 262 263 264 264 265 266 267 267 267
277 273 269 266 263 261 258 256 253 250 247 244 242 240 239 238 238 238 237 237 238 239 240 239 239 238 239 241 243 243 242 242 243 244 246 247 247 248 250 251 251 250 250 250 251 252 252 251 251 251 250 250 250 250 250 250 251 250 249 249 250 250 250 251 252 254 256 257 257 257 256 255 254 253 253 256 259 261 262 263 264 264 263 262 263 264 265 267
279 276 272 268 265 262 259 256 254 252 248 245 242 240 239 238 238 238 237 237 237 238 240 240 239 239 239 241 243 243 242 242 242 244 246 247 247 248 249 249 249 249 250 251 252 252 252 251 250 250 249 249 248 248 249 250 250 251 250 250 250 251 251 252 253 254 255 256 257 257 256 255 255 255 255 257 258 260 262 263 264 264 263 261 262 263 264 266
280 277 274 271 267 263 260 256 254 252 249 246 243 241 239 238 238 238 238 238 237 238 240 240 239 239 239 240 242 243 244 243 243 244 245 246 247 247 247 247 248 249 250 252 252 252 251 250 250 249 249 249 248 248 249 249 251 253 252 251 251 251 252 253 254 255 255 255 256 255 255 254 254 255 257 258 258 259 261 262 264 264 263 262 261 262 263 264
282 279 275 272 269 265 262 258 254 252 250 249 247 243 240 238 238 238 238 239 239 238 240 241 240 239 238 240 242 243 244 244 243 243 244 245 247 248 248 248 249 249 250 252 251 251 251 251 250 249 249 249 249 249 249 250 252 254 254 253 253 253 254 255 254 254 254 254 254 254 254 255 255 256 256 256 256 257 259 261 262 264 264 263 263 262 262 262
282 280 277 273 270 267 263 260 256 253 251 250 249 245 241 238 238 238 237 239 239 238 239 241 241 240 239 239 241 242 243 244 244 243 244 245 247 248 248 248 249 250 250 251 251 250 249 249 249 250 250 251 250 250 251 252 253 255 256 256 255 255 255 254 254 253 253 252 252 253 254 256 257 256 255 253 254 256 258 259 261 263 264 263 261 260 260 260
280 279 278 275 271 268 264 261 258 256 253 251 250 247 243 240 238 237 237 238 239 238 238 240 241 241 239 239 241 241 243 244 244 244 244 244 245 246 247 248 249 249 249 249 250 249 247 247 249 251 251 251 251 251 252 253 255 256 258 257 255 254 253 253 252 252 252 252 253 254 255 256 258 258 256 253 253 256 257 258 259 260 261 260 259 258 258 258
277 276 276 276 273 270 265 263 261 258 256 253 250 248 245 243 240 238 237 237 238 237 237 237 239 240 239 239 240 242 242 243 245 246 245 245 245 246 247 248 249 248 247 248 249 248 248 247 248 249 250 250 251 252 253 253 254 256 256 256 254 253 252 252 252 253 253 253 254 254 255 256 258 259 259 256 254 255 255 255 257 258 258 258 257 256 256 256
275 274 274 274 274 271 268 266 262 259 257 255 252 249 246 244 242 239 238 238 237 237 237 237 238 240 239 239 240 241 242 243 245 246 246 246 246 246 247 247 247 246 246 246 247 248 249 249 248 249 250 251 252 253 252 252 252 253 254 254 253 252 252 252 253 253 254 254 255 255 254 255 257 260 261 259 255 254 254 253 255 256 256 256 256 256 256 255
273 272 271 271 271 271 270 268 264 261 258 256 253 251 248 245 243 240 239 238 238 238 238 237 238 239 239 240 241 241 241 242 244 244 245 245 245 246 247 247 247 247 246 246 247 248 248 249 249 249 250 251 252 251 250 250 251 253 253 254 254 253 253 252 253 253 253 253 253 254 253 254 255 259 263 262 258 257 257 256 256 255 255 256 256 256 257 257
271 270 270 269 268 269 270 269 266 263 259 256 253 252 250 247 243 241 240 239 238 238 238 238 237 239 240 241 241 241 240 241 242 243 244 244 244 245 246 246 246 246 246 246 247 247 248 248 249 249 249 250 250 251 251 252 253 253 253 253 254 254 254 253 252 251 251 251 251 253 254 255 256 259 263 265 263 260 258 257 255 254 253 254 254 255 257 258
269 268 268 268 267 267 268 268 267 265 261 258 255 253 252 248 243 241 241 240 240 239 240 240 239 239 239 240 241 241 241 241 242 243 244 244 243 244 245 245 245 245 245 246 247 248 248 248 248 248 248 248 249 251 252 252 252 252 251 252 254 255 255 254 253 252 251 251 252 253 254 256 257 258 260 264 263 260 258 255 252 252 251 251 253 254 257 261
268 267 267 267 267 267 267 267 267 266 262 259 257 254 252 248 244 243 243 243 243 241 240 240 240 239 238 239 240 240 240 240 241 242 244 245 245 245 245 246 245 245 246 246 247 248 248 248 247 247 248 248 249 251 251 251 250 251 252 252 253 254 254 254 254 254 255 255 254 254 255 255 256 257 258 262 263 260 258 254 251 250 249 250 251 253 259 267
267 266 266 267 268 269 268 265 263 263 261 259 258 255 252 250 248 247 247 245 244 242 240 239 241 241 240 241 242 240 240 240 240 241 243 245 247 247 247 248 247 246 247 247 247 248 249 250 249 248 248 249 249 250 249 248 248 250 251 251 251 252 253 255 256 257 258 259 259 258 258 257 257 257 257 259 260 258 256 254 252 251 251 251 251 252 256 253
267 265 266 267 268 268 265 261 260 261 261 259 257 255 253 252 251 250 249 247 245 243 241 241 241 241 241 242 243 242 241 242 241 240 240 240 244 246 246 247 246 246 246 246 247 247 249 250 250 249 249 249 250 249 248 248 249 249 250 250 252 253 254 256 258 259 260 261 261 260 260 259 258 256 255 255 256 256 256 256 255 253 253 254 253 253 251 242
267 266 266 267 267 265 262 261 260 260 261 259 256 254 253 253 252 250 249 248 247 244 243 242 242 242 242 242 243 242 242 244 245 244 242 239 241 243 244 245 244 245 246 246 246 247 250 251 251 251 251 250 250 251 250 250 249 250 250 251 253 253 254 255 256 258 258 259 259 259 260 260 259 258 255 254 254 255 256 256 255 254 254 255 255 254 253 250
268 267 267 267 266 264 262 261 261 260 260 258 255 253 253 253 253 252 251 250 249 247 245 244 243 244 243 243 244 243 241 243 246 247 247 245 243 244 245 245 244 245 246 246 247 248 250 252 252 252 253 251 251 252 252 251 250 250 251 251 252 253 253 254 255 256 257 258 259 260 260 260 260 259 258 256 255 255 256 256 256 256 255 255 256 256 257 257
268 267 267 266 265 263 262 261 260 258 258 256 254 254 254 255 257 255 253 252 251 249 248 247 246 247 246 245 246 245 243 242 243 245 247 247 246 246 246 246 245 244 245 246 246 247 249 252 253 252 253 253 252 252 252 252 251 252 253 252 252 254 255 255 257 258 259 260 260 261 261 261 261 261 260 258 257 257 257 257 258 258 258 258 258 259 260 261
268 267 266 265 265 263 261 260 259 257 256 254 254 254 255 256 258 258 255 254 253 251 250 250 250 249 248 248 248 247 245 244 242 243 245 245 245 245 246 246 245 243 243 243 244 245 247 251 252 252 252 252 252 252 253 253 253 253 253 253 253 255 256 257 258 259 260 260 260 260 261 262 262 261 260 259 259 258 258 259 258 259 259 260 260 260 260 261
268 267 265 264 264 263 261 260 259 257 256 254 253 253 254 256 258 258 256 255 255 254 252 251 251 251 250 249 248 247 247 247 245 244 244 245 245 245 245 245 246 244 244 244 244 244 246 249 252 252 251 251 252 253 253 254 254 254 254 254 254 255 257 257 257 257 258 259 259 259 259 260 260 260 260 259 259 259 260 260 260 260 260 260 261 261 262 263
267 266 264 264 263 262 261 259 258 257 255 254 253 252 253 254 256 258 256 254 255 256 254 251 250 250 251 249 248 247 247 247 247 247 246 246 246 246 245 245 245 245 245 246 246 245 246 249 252 254 254 254 254 254 255 255 257 257 257 257 257 256 255 255 256 256 256 258 259 259 258 258 259 259 260 259 259 260 260 261 261 261 261 261 262 263 265 266
266 264 263 262 262 260 259 258 257 256 254 254 253 253 253 253 255 257 256 254 254 255 254 252 250 248 248 248 248 248 247 247 248 249 249 249 249 248 247 246 246 247 247 248 248 248 248 249 252 255 256 256 256 257 257 257 256 257 258 258 258 257 256 255 255 255 255 256 257 258 259 259 259 259 260 260 260 261 261 261 262 262 262 262 263 264 265 267
264 262 260 260 259 258 257 256 254 253 253 253 252 252 251 251 253 255 256 254 253 252 251 250 250 248 246 245 246 246 245 245 246 247 249 250 250 251 250 249 249 248 248 248 248 248 248 248 251 254 257 258 258 258 259 259 257 255 255 255 256 256 256 255 256 256 256 255 256 257 258 258 258 259 259 260 260 261 261 260 261 261 262 262 263 264 264 265
263 260 257 256 256 255 254 252 252 251 251 250 250 250 250 251 252 255 256 255 253 252 250 248 247 247 245 244 244 244 244 243 244 244 246 248 249 251 251 251 251 250 249 249 249 249 248 247 249 252 255 257 257 257 257 259 258 256 254 252 252 253 254 255 256 256 257 257 257 257 257 257 258 258 259 259 259 259 259 259 260 260 261 262 262 262 263 263
262 259 254 251 252 253 252 251 251 251 250 249 249 250 250 250 252 253 254 253 252 251 250 247 245 245 245 244 244 244 244 243 243 243 244 246 248 249 250 251 252 252 252 251 251 252 251 250 250 251 253 255 257 256 255 256 257 257 255 252 251 252 253 255 256 257 258 259 259 259 258 258 258 258 258 258 258 258 259 259 260 260 260 261 261 262 262 262
262 258 253 249 248 250 251 251 250 250 250 249 249 248 248 248 250 251 251 252 251 250 249 247 245 244 243 243 243 244 244 244 244 244 244 246 247 248 248 248 249 251 252 252 252 253 254 253 252 253 254 255 257 257 256 256 256 256 257 256 254 253 253 254 256 257 258 259 260 260 260 259 259 259 259 259 260 260 260 260 260 260 260 260 260 260 261 262
263 257 253 249 247 247 248 249 249 249 248 247 246 245 245 246 247 248 249 250 249 248 248 247 245 244 242 241 242 243 244 243 243 243 243 244 245 246 246 246 246 247 248 251 251 252 252 253 252 252 253 254 256 258 258 258 258 257 257 257 256 255 255 255 255 256 257 258 259 259 259 259 259 259 259 259 260 260 260 260 260 260 260 260 260 260 260 261
263 257 253 250 246 245 245 246 247 248 247 246 244 243 243 243 245 246 246 246 247 246 246 245 245 244 243 242 241 242 244 244 242 242 242 243 244 244 245 245 246 246 246 248 249 250 252 253 252 252 253 253 254 256 258 259 261 261 260 260 258 257 256 255 255 255 255 256 257 257 257 258 258 258 258 258 258 258 258 258 259 259 260 260 260 260 261 261
263 258 254 250 247 244 244 243 244 246 246 245 243 243 242 241 242 243 243 244 245 245 244 244 243 244 244 243 242 242 243 244 243 242 242 242 243 244 245 245 245 245 245 246 248 250 251 252 253 254 254 255 256 257 258 259 261 263 264 265 266 265 262 259 256 256 256 256 256 256 256 256 256 256 256 257 257 257 257 257 257 258 258 259 259 259 260 261
264 259 254 251 247 244 243 242 242 244 246 245 242 240 240 240 240 241 242 242 243 243 243 242 242 242 242 242 242 241 241 242 243 242 241 241 242 243 244 244 244 244 245 246 247 249 251 253 254 255 256 257 258 259 260 260 261 263 265 267 268 269 269 267 264 262 259 258 258 258 257 257 257 256 256 256 257 257 257 257 258 258 258 259 259 260 261 261
Height
10619 10621 10623 10625 10627 10629 10631 10633 10635 10638 10640 10643 10646 10649 10651 10654 10656 10659 10661 10663 10665 10668 10671 10673 10675 10677 10680 10682 10684 10686 10688 10690 10693 10695 10697 10699 10700 10702 10703 10705 10708 10709 10712 10715 10717 10717 10718 10723 10727 10729 10728 10730 10731 10732 10735 10738 10743 10743 10742 10741 10737 10736 10737 10739 10740 10742 10746 10746 10745 10747 10747 10745 10744 10746 10750 10751 10752 10755 10756 10755 10753 10752 10752 10751 10752 10753 10752 10752
10611 10613 10615 10616 10619 10621 10623 10626 10628 10631 10633 10636 10639 10641 10644 10646 10649 10651 10653 10655 10658 10661 10663 10665 10667 10670 10673 10675 10677 10678 10681 10684 10686 10688 10690 10692 10693 10695 10696 10697 10699 10701 10704 10707 10708 10708 10711 10716 10719 10719 10718 10720 10722 10724 10727 10730 10734 10735 10735 10733 10727 10726 10731 10734 10733 10736 10738 10738 10738 10739 10740 10738 10735 10737 10742 10742 10741 10745 10745 10745 10746 10746 10745 10745 10745 10746 10744 10743
10604 10605 10607 10609 10611 10613 10615 10618 10621 10623 10626 10629 10631 10634 10637 10639 10641 10643 10645 10648 10651 10654 10656 10657 10660 10663 10665 10668 10669 10671 10674 10677 10679 10681 10683 10685 10686 10688 10689 10690 10692 10694 10697 10698 10698 10701 10704 10708 10709 10709 10710 10712 10714 10717 10719 10722 10725 10727 10728 10723 10716 10719 10725 10727 10727 10729 10731 10731 10731 10731 10732 10730 10727 10727 10731 10733 10733 10736 10737 10736 10738 10737 10737 10737 10737 10737 10735 10734
10597 10598 10600 10601 10603 10605 10608 10610 10613 10615 10618 10621 10624 10627 10629 10631 10634 10636 10638 10641 10644 10646 10648 10650 10653 10656 10658 10660 10662 10664 10667 10670 10672 10674 10676 10678 10680 10681 10682 10683 10685 10687 10689 10689 10691 10694 10697 10699 10701 10701 10702 10702 10706 10710 10710 10713 10717 10720 10720 10713 10709 10713 10717 10719 10720 10722 10723 10723 10723 10723 10723 10721 10718 10717 10721 10726 10727 10727 10728 10728 10728 10727 10727 10728 10728 10727 10725 10724
10590 10591 10592 10594 10596 10598 10600 10602 10605 10608 10610 10613 10616 10619 10621 10624 10626 10628 10631 10633 10637 10639 10641 10643 10646 10648 10650 10652 10654 10657 10661 10663 10665 10668 10670 10671 10673 10674 10675 10676 10677 10679 10681 10682 10684 10687 10690 10692 10693 10693 10693 10695 10700 10702 10702 10705 10711 10713 10711 10704 10704 10706 10707 10711 10714 10715 10716 10716 10715 10715 10714 10710 10709 10711 10714 10719 10721 10719 10719 10719 10719 10719 10719 10718 10717 10716 10716 10715
10583 10584 10585 10587 10589 10591 10593 10595 10597 10600 10603 10605 10608 10611 10614 10617 10619 10621 10623 10626 10629 10631 10633 10636 10638 10641 10643 10645 10647 10650 10653 10656 10659 10661 10662 10664 10665 10667 10668 10669 10670 10672 10673 10675 10678 10680 10682 10684 10684 10684 10685 10688 10693 10693 10695 10701 10705 10706 10702 10697 10697 10699 10699 10702 10706 10707 10708 10708 10707 10706 10704 10701 10702 10706 10709 10713 10714 10713 10712 10710 10711 10711 10710 10708 10707 10707 10708 10708
10577 10578 10579 10580 10582 10584 10586 10588 10590 10593 10595 10598 10601 10603 10606 10609 10611 10613 10616 10619 10622 10624 10627 10629 10631 10634 10636 10637 10639 10642 10646 10649 10652 10653 10654 10656 10658 10660 10661 10662 10663 10664 10666 10668 10671 10673 10674 10675 10675 10676 10678 10682 10685 10686 10691 10696 10698 10697 10693 10690 10690 10692 10690 10693 10699 10699 10700 10700 10697 10697 10695 10693 10696 10701 10704 10706 10706 10706 10705 10702 10702 10701 10700 10700 10699 10700 10700 10701
10571 10571 10572 10574 10575 10577 10579 10581 10583 10586 10588 10590 10593 10596 10598 10601 10604 10606 10609 10612 10614 10617 10620 10622 10624 10626 10628 10630 10632 10635 10639 10642 10645 10646 10647 10648 10650 10652 10654 10655 10657 10658 10659 10661 10663 10665 10666 10666 10668 10671 10673 10677 10679 10680 10684 10688 10689 10687 10683 10682 10683 10684 10682 10684 10690 10691 10691 10692 10690 10689 10686 10687 10692 10697 10699 10698 10697 10697 10696 10693 10692 10691 10692 10693 10692 10693 10694 10693
10565 10565 10566 10567 10569 10570 10572 10574 10576 10578 10581 10584 10586 10589 10591 10594 10596 10599 10602 10604 10607 10610 10612 10614 10617 10619 10621 10622 10624 10629 10632 10635 10638 10638 10639 10641 10643 10645 10646 10648 10650 10651 10652 10654 10655 10657 10658 10660 10664 10666 10668 10670 10671 10672 10676 10680 10680 10677 10675 10676 10676 10675 10674 10676 10681 10683 10683 10685 10684 10682 10678 10681 10689 10694 10693 10690 10689 10687 10686 10684 10683 10682 10683 10684 10685 10686 10687 10685
10559 10559 10560 10561 10562 10564 10565 10567 10569 10572 10574 10577 10579 10582 10584 10587 10589 10592 10595 10597 10600 10603 10605 10607 10609 10611 10613 10614 10618 10621 10624 10628 10630 10631 10632 10634 10635 10637 10639 10641 10642 10644 10645 10646 10647 10650 10652 10656 10659 10660 10660 10661 10661 10664 10669 10671 10671 10669 10668 10670 10669 10667 10667 10669 10672 10674 10676 10678 10678 10674 10672 10676 10684 10688 10687 10684 10682 10679 10677 10677 10674 10674 10676 10677 10678 10678 10678 10676
10553 10553 10554 10555 10556 10557 10559 10561 10563 10565 10568 10570 10573 10575 10578 10580 10583 10585 10588 10590 10593 10596 10598 10600 10602 10603 10605 10608 10611 10614 10618 10621 10622 10623 10626 10627 10628 10630 10632 10633 10635 10636 10637 10638 10641 10644 10646 10649 10651 10652 10652 10653 10654 10657 10661 10662 10663 10663 10662 10663 10663 10662 10662 10661 10662 10666 10671 10673 10670 10668 10668 10671 10676 10681 10680 10678 10676 10672 10669 10668 10667 10668 10670 10672 10672 10670 10669 10668
10547 10548 10548 10549 10550 10551 10553 10554 10556 10559 10561 10564 10566 10569 10571 10574 10576 10579 10581 10584 10586 10589 10591 10593 10594 10596 10598 10602 10604 10607 10612 10614 10614 10616 10618 10620 10622 10623 10625 10626 10628 10629 10630 10632 10635 10637 10640 10642 10643 10643 10644 10645 10646 10649 10652 10653 10655 10656 10657 10657 10656 10656 10654 10650 10653 10661 10667 10667 10663 10662 10663 10663 10668 10674 10674 10673 10669 10665 10662 10660 10659 10661 10664 10666 10665 10663 10662 10661
10542 10542 10542 10543 10544 10545 10547 10548 10550 10552 10555 10557 10560 10562 10565 10568 10570 10573 10575 10577 10580 10582 10584 10586 10587 10590 10593 10596 10597 10601 10606 10606 10607 10609 10611 10613 10616 10617 10618 10620 10621 10622 10624 10626 10628 10630 10633 10635 10636 10636 10636 10637 10639 10641 10644 10646 10647 10649 10650 10649 10648 10648 10646 10644 10649 10654 10659 10658 10654 10657 10658 10654 10661 10668 10668 10666 10663 10658 10655 10653 10653 10655 10657 10659 10658 10657 10656 10655
10537 10537 10537 10538 10539 10540 10541 10543 10545 10547 10549 10551 10554 10556 10559 10561 10564 10566 10569 10571 10574 10575 10577 10579 10581 10584 10588 10589 10590 10594 10599 10599 10600 10602 10604 10606 10609 10610 10612 10613 10615 10616 10617 10619 10621 10624 10626 10628 10628 10628 10628 10629 10631 10635 10637 10639 10639 10640 10641 10642 10641 10641 10639 10641 10644 10645 10647 10649 10648 10653 10652 10647 10654 10661 10660 10659 10655 10651 10649 10648 10648 10649 10651 10653 10651 10651 10649 10649
10532 10532 10532 10533 10533 10534 10536 10537 10539 10541 10543 10546 10548 10550 10553 10555 10558 10560 10563 10565 10567 10569 10571 10573 10576 10579 10582 10583 10584 10587 10592 10593 10593 10595 10598 10600 10601 10603 10605 10607 10608 10609 10611 10613 10615 10617 10619 10620 10620 10620 10621 10622 10625 10628 10630 10631 10630 10630 10633 10636 10636 10635 10634 10635 10636 10636 10639 10641 10642 10646 10645 10643 10647 10650 10651 10651 10647 10643 10643 10643 10643 10644 10646 10646 10644 10644 10643 10644
10527 10527 10527 10528 10528 10529 10531 10532 10534 10536 10538 10540 10542 10545 10547 10549 10552 10554 10557 10559 10561 10563 10565 10568 10570 10574 10576 10577 10578 10580 10584 10587 10587 10589 10591 10593 10595 10597 10599 10600 10602 10603 10605 10606 10608 10610 10612 10612 10613 10614 10615 10616 10618 10620 10621 10622 10622 10623 10627 10630 10630 10629 10628 10627 10628 10630 10633 10634 10635 10638 10638 10638 10640 10642 10644 10642 10639 10638 10638 10638 10638 10640 10641 10640 10637 10637 10638 10639
10523 10523 10523 10523 10524 10525 10526 10527 10529 10531 10533 10534 10537 10539 10541 10544 10546 10548 10551 10553 10555 10557 10560 10562 10565 10569 10570 10571 10571 10573 10577 10580 10582 10583 10585 10587 10589 10591 10592 10594 10595 10597 10598 10600 10602 10604 10605 10605 10606 10607 10609 10609 10610 10612 10613 10614 10615 10618 10621 10622 10622 10621 10620 10620 10622 10624 10626 10627 10629 10632 10632 10632 10634 10635 10636 10635 10633 10633 10632 10633 10634 10634 10635 10634 10631 10631 10633 10635
10519 10518 10519 10519 10520 10520 10521 10523 10524 10526 10527 10529 10531 10533 10536 10538 10540 10543 10545 10547 10549 10551 10555 10557 10560 10563 10564 10564 10566 10567 10570 10574 10576 10578 10579 10581 10583 10584 10586 10588 10589 10590 10592 10593 10595 10597 10598 10599 10599 10600 10601 10602 10603 10604 10605 10608 10610 10612 10613 10613 10614 10614 10614 10615 10616 10617 10620 10620 10623 10627 10626 10626 10628 10629 10629 10629 10628 10627 10627 10628 10629 10628 10628 10628 10627 10626 10627 10630
10514 10514 10514 10515 10515 10516 10517 10518 10520 10521 10522 10524 10526 10528 10531 10533 10535 10538 10539 10541 10544 10546 10549 10551 10554 10557 10557 10558 10560 10561 10564 10568 10570 10572 10574 10575 10577 10578 10580 10582 10583 10584 10585 10587 10588 10590 10591 10592 10592 10593 10595 10596 10597 10597 10600 10603 10604 10604 10605 10605 10607 10609 10609 10610 10610 10612 10614 10614 10617 10621 10620 10620 10621 10622 10623 10623 10622 10622 10623 10623 10623 10622 10623 10623 10622 10621 10622 10624
10510 10510 10510 10511 10511 10512 10513 10514 10516 10516 10518 10519 10521 10523 10526 10528 10529 10531 10533 10536 10538 10540 10543 10545 10547 10551 10551 10551 10553 10556 10560 10562 10563 10566 10568 10570 10571 10573 10574 10576 10577 10578 10580 10581 10581 10583 10584 10585 10586 10588 10590 10590 10591 10592 10595 10596 10595 10596 10597 10599 10603 10605 10605 10604 10604 10606 10608 10609 10612 10615 10615 10615 10615 10615 10617 10618 10618 10617 10617 10618 10618 10619 10618 10618 10617 10617 10617 10619
10507 10506 10506 10507 10507 10508 10509 10510 10511 10512 10513 10514 10516 10518 10520 10522 10523 10524 10527 10530 10532 10534 10536 10538 10541 10544 10543 10544 10548 10552 10554 10556 10558 10560 10562 10564 10566 10567 10569 10570 10572 10573 10574 10574 10575 10576 10578 10580 10581 10583 10584 10585 10585 10587 10589 10588 10588 10590 10591 10594 10598 10599 10599 10598 10598 10600 10601 10603 10606 10609 10610 10610 10610 10609 10610 10612 10612 10612 10613 10614 10615 10616 10614 10613 10612 10613 10613 10613
10503 10503 10503 10503 10503 10504 10505 10506 10507 10507 10508 10509 10511 10513 10514 10515 10516 10519 10523 10525 10526 10528 10529 10532 10535 10537 10538 10540 10543 10546 10548 10550 10553 10554 10555 10559 10561 10562 10563 10565 10567 10567 10567 10568 10569 10571 10573 10575 10576 10578 10579 10579 10580 10582 10582 10581 10582 10584 10586 10589 10592 10593 10594 10593 10593 10594 10596 10598 10601 10604 10605 10606 10606 10604 10603 10605 10607 10608 10610 10611 10612 10612 10611 10610 10609 10609 10608 10607
10500 10499 10499 10499 10499 10500 10501 10502 10502 10503 10504 10505 10506 10507 10508 10510 10513 10515 10518 10519 10521 10523 10524 10526 10530 10532 10534 10535 10537 10541 10543 10546 10548 10548 10550 10553 10556 10556 10557 10560 10562 10561 10561 10563 10565 10567 10569 10571 10572 10573 10573 10574 10575 10576 10576 10576 10577 10579 10581 10584 10586 10588 10589 10589 10589 10590 10592 10593 10595 10597 10599 10600 10601 10600 10599 10600 10602 10604 10606 10607 10607 10607 10608 10607 10606 10605 10604 10602
10496 10496 10495 10495 10496 10496 10497 10498 10498 10498 10499 10500 10501 10501 10503 10507 10509 10511 10513 10514 10517 10519 10518 10520 10524 10526 10528 10531 10533 10535 10538 10541 10542 10543 10545 10548 10549 10550 10553 10556 10556 10555 10555 10558 10561 10563 10565 10566 10567 10568 10568 10569 10570 10571 10571 10571 10571 10572 10576 10579 10581 10583 10584 10584 10585 10586 10587 10588 10589 10591 10592 10592 10594 10595 10596 10598 10598 10599 10601 10602 10601 10602 10604 10604 10602 10601 10599 10598
10492 10492 10492 10492 10492 10492 10493 10494 10493 10494 10495 10495 10495 10497 10499 10502 10504 10505 10507 10508 10511 10513 10511 10514 10518 10520 10525 10529 10527 10526 10531 10535 10536 10538 10540 10542 10542 10545 10549 10550 10548 10549 10551 10554 10557 10558 10560 10561 10562 10562 10563 10564 10565 10566 10566 10565 10565 10566 10571 10575 10576 10578 10579 10580 10581 10583 10583 10582 10583 10585 10584 10585 10586 10588 10591 10595 10595 10595 10597 10597 10596 10597 10600 10599 10598 10596 10595 10595
10489 10488 10488 10488 10488 10488 10489 10489 10489 10489 10490 10490 10490 10493 10496 10498 10499 10499 10501 10503 10505 10507 10505 10508 10512 10516 10521 10522 10519 10521 10525 10528 10531 10534 10534 10534 10536 10540 10543 10542 10541 10545 10548 10551 10552 10553 10554 10556 10557 10557 10558 10558 10560 10560 10560 10560 10560 10561 10564 10569 10571 10573 10574 10575 10576 10577 10578 10577 10578 10579 10578 10579 10581 10582 10587 10591 10592 10592 10593 10593 10592 10592 10594 10594 10594 10592 10590 10590
10485 10485 10484 10484 10484 10485 10485 10485 10484 10484 10485 10485 10487 10490 10492 10492 10493 10494 10497 10497 10499 10501 10500 10502 10506 10510 10515 10515 10514 10517 10518 10520 10526 10527 10527 10529 10531 10534 10537 10536 10536 10541 10545 10546 10546 10547 10549 10551 10550 10551 10552 10553 10554 10555 10555 10556 10557 10555 10557 10563 10567 10568 10569 10570 10570 10571 10572 10572 10573 10573 10572 10573 10575 10579 10584 10586 10587 10588 10589 10589 10588 10587 10588 10589 10589 10588 10586 10586
10481 10480 10480 10480 10480 10480 10480 10480 10480 10480 10480 10481 10483 10486 10486 10487 10488 10489 10491 10491 10492 10495 10496 10497 10500 10504 10509 10510 10509 10510 10511 10514 10518 10519 10522 10525 10527 10529 10530 10529 10531 10537 10541 10540 10539 10542 10545 10545 10544 10546 10547 10548 10549 10549 10550 10552 10551 10550 10553 10558 10562 10563 10563 10563 10564 10565 10566 10567 10567 10568 10568 10568 10569 10573 10579 10582 10582 10584 10585 10585 10584 10582 10582 10583 10583 10583 10582 10582
10477 10476 10476 10476 10476 10476 10476 10476 10476 10476 10476 10477 10479 10480 10481 10482 10483 10485 10486 10486 10486 10488 10490 10492 10493 10497 10503 10504 10503 10504 10507 10509 10510 10513 10518 10521 10521 10522 10522 10523 10528 10533 10536 10534 10532 10535 10538 10539 10541 10542 10542 10542 10542 10544 10547 10547 10546 10546 10549 10552 10555 10557 10557 10557 10558 10559 10561 10561 10562 10564 10564 10563 10563 10565 10571 10576 10579 10580 10581 10581 10580 10577 10577 10577 10577 10578 10578 10578
10473 10472 10471 10471 10471 10472 10472 10472 10472 10472 10472 10472 10474 10474 10476 10478 10479 10481 10481 10479 10479 10482 10484 10486 10487 10491 10497 10498 10497 10500 10502 10504 10505 10507 10511 10514 10516 10516 10516 10519 10523 10527 10529 10527 10526 10528 10531 10535 10537 10537 10536 10536 10536 10539 10543 10543 10542 10543 10544 10544 10547 10550 10551 10552 10553 10554 10556 10556 10557 10560 10561 10559 10559 10559 10562 10570 10575 10576 10576 10576 10575 10573 10572 10572 10572 10573 10574 10574
10468 10467 10467 10467 10467 10467 10468 10468 10468 10467 10467 10469 10469 10469 10471 10473 10475 10476 10474 10472 10474 10476 10478 10481 10484 10486 10490 10491 10492 10495 10498 10500 10501 10502 10505 10508 10510 10510 10511 10514 10517 10520 10523 10522 10520 10522 10526 10529 10532 10531 10530 10531 10532 10534 10537 10537 10536 10537 10537 10538 10540 10543 10546 10547 10548 10550 10552 10552 10553 10555 10556 10555 10555 10554 10554 10562 10569 10570 10571 10572 10570 10568 10567 10567 10568 10569 10569 10569
10463 10462 10462 10462 10462 10462 10463 10464 10463 10463 10463 10464 10464 10464 10465 10468 10470 10469 10466 10466 10469 10471 10473 10477 10480 10481 10484 10487 10488 10491 10493 10495 10496 10497 10499 10502 10504 10504 10505 10508 10511 10514 10517 10516 10515 10518 10521 10523 10526 10527 10526 10526 10527 10528 10530 10531 10532 10532 10532 10533 10534 10537 10541 10542 10544 10546 10547 10548 10548 10548 10550 10550 10550 10550 10549 10553 10562 10565 10566 10566 10565 10564 10564 10563 10564 10564 10565 10565
10458 10457 10456 10457 10457 10457 10459 10459 10458 10458 10459 10459 10459 10459 10460 10463 10463 10460 10458 10460 10463 10465 10468 10472 10475 10477 10479 10482 10482 10484 10488 10490 10490 10491 10493 10497 10499 10499 10499 10503 10506 10508 10511 10511 10511 10513 10517 10518 10520 10522 10521 10521 10521 10522 10525 10526 10527 10528 10528 10528 10529 10532 10535 10537 10538 10540 10540 10542 10543 10543 10544 10545 10547 10549 10546 10546 10555 10560 10560 10560 10560 10559 10560 10560 10560 10561 10561 10562
10453 10451 10450 10451 10452 10453 10455 10455 10453 10453 10454 10454 10454 10455 10456 10457 10454 10451 10451 10454 10457 10462 10465 10468 10471 10473 10474 10475 10476 10479 10482 10484 10485 10486 10488 10491 10493 10494 10495 10497 10501 10503 10505 10506 10506 10509 10512 10513 10516 10516 10516 10516 10515 10516 10520 10522 10522 10522 10523 10524 10524 10527 10529 10529 10531 10533 10534 10537 10538 10539 10539 10540 10543 10546 10544 10542 10548 10553 10553 10554 10555 10555 10556 10556 10557 10558 10558 10559
10447 10445 10444 10445 10446 10449 10451 10451 10448 10448 10449 10449 10449 10450 10451 10448 10445 10444 10446 10450 10454 10459 10461 10462 10464 10467 10468 10469 10470 10472 10476 10478 10481 10482 10484 10486 10487 10489 10490 10492 10496 10498 10500 10502 10503 10505 10506 10508 10511 10511 10511 10511 10510 10512 10515 10516 10516 10516 10518 10520 10521 10522 10523 10523 10524 10527 10529 10531 10532 10533 10533 10535 10538 10542 10542 10539 10542 10546 10546 10547 10549 10550 10551 10553 10553 10555 10556 10557
10441 10439 10438 10439 10441 10445 10447 10445 10443 10442 10443 10444 10445 10445 10442 10439 10439 10440 10442 10446 10449 10453 10454 10455 10458 10461 10463 10464 10463 10467 10471 10473 10475 10478 10480 10482 10482 10484 10486 10488 10493 10494 10495 10498 10499 10501 10502 10503 10506 10506 10506 10506 10505 10507 10509 10509 10511 10513 10514 10515 10516 10517 10517 10518 10519 10522 10523 10524 10525 10527 10527 10529 10534 10538 10539 10537 10537 10539 10540 10541 10543 10544 10546 10547 10549 10551 10553 10554
10433 10433 10432 10433 10436 10440 10440 10438 10437 10436 10437 10440 10441 10438 10434 10433 10434 10434 10437 10440 10444 10447 10449 10451 10453 10455 10458 10459 10458 10462 10467 10467 10470 10473 10475 10477 10477 10478 10481 10484 10487 10490 10490 10492 10495 10497 10497 10497 10500 10501 10500 10500 10501 10502 10502 10504 10508 10509 10508 10510 10511 10513 10514 10514 10515 10516 10518 10518 10518 10520 10520 10523 10528 10532 10534 10534 10533 10533 10534 10534 10536 10538 10540 10541 10542 10545 10547 10546
10425 10426 10428 10428 10430 10433 10432 10431 10432 10431 10431 10434 10435 10431 10429 10427 10426 10428 10432 10435 10438 10442 10444 10445 10447 10450 10453 10453 10452 10458 10462 10462 10465 10468 10469 10472 10473 10473 10476 10479 10483 10484 10485 10487 10490 10492 10492 10491 10494 10494 10493 10495 10495 10495 10496 10500 10503 10502 10503 10506 10507 10507 10508 10509 10510 10511 10512 10511 10511 10514 10515 10517 10522 10525 10528 10529 10528 10527 10528 10528 10530 10532 10533 10534 10535 10537 10538 10539
10417 10420 10422 10422 10423 10425 10425 10424 10426 10426 10426 10428 10427 10425 10423 10420 10419 10423 10427 10430 10433 10437 10439 10440 10442 10444 10447 10448 10448 10453 10458 10458 10460 10462 10464 10468 10470 10470 10471 10474 10478 10479 10480 10482 10485 10487 10487 10485 10487 10487 10485 10488 10489 10488 10490 10493 10495 10495 10497 10500 10500 10500 10502 10504 10504 10504 10505 10505 10506 10509 10510 10512 10515 10519 10521 10522 10522 10522 10521 10522 10523 10525 10526 10528 10528 10528 10530 10533
10408 10413 10416 10414 10415 10417 10417 10417 10419 10420 10421 10421 10420 10418 10417 10414 10414 10418 10422 10425 10428 10432 10434 10436 10439 10440 10442 10443 10445 10449 10452 10452 10455 10457 10458 10462 10465 10466 10467 10470 10473 10474 10475 10478 10480 10482 10482 10479 10480 10480 10479 10480 10481 10482 10483 10485 10487 10489 10491 10493 10494 10494 10497 10499 10499 10499 10500 10501 10501 10503 10504 10506 10510 10512 10514 10515 10516 10515 10515 10516 10518 10518 10519 10521 10521 10521 10523 10525
10399 10406 10408 10405 10406 10408 10409 10410 10412 10413 10413 10413 10412 10412 10411 10410 10409 10411 10417 10420 10423 10426 10429 10432 10435 10436 10437 10439 10440 10443 10444 10446 10449 10451 10452 10455 10458 10461 10462 10464 10466 10468 10470 10472 10474 10476 10476 10474 10473 10473 10472 10472 10473 10475 10477 10478 10481 10483 10484 10486 10489 10490 10492 10494 10494 10494 10494 10494 10495 10497 10498 10501 10504 10505 10506 10508 10508 10508 10508 10510 10511 10511 10513 10514 10513 10513 10514 10516
10390 10397 10399 10396 10397 10399 10400 10402 10404 10405 10405 10405 10405 10405 10406 10406 10403 10404 10411 10416 10417 10420 10424 10427 10430 10431 10431 10433 10435 10437 10438 10440 10442 10444 10446 10449 10451 10454 10456 10457 10459 10462 10464 10466 10468 10470 10471 10468 10465 10464 10465 10465 10467 10469 10470 10472 10475 10476 10477 10480 10484 10486 10488 10488 10487 10488 10487 10486 10487 10490 10492 10495 10497 10497 10498 10500 10500 10501 10502 10502 10503 10504 10506 10507 10505 10504 10505 10507
10381 10388 10389 10387 10388 10390 10391 10393 10396 10397 10397 10397 10399 10400 10401 10400 10397 10397 10405 10411 10412 10415 10418 10422 10425 10425 10425 10427 10428 10430 10432 10433 10435 10437 10440 10443 10444 10447 10449 10450 10453 10457 10459 10460 10462 10464 10464 10463 10459 10457 10457 10459 10461 10463 10465 10467 10470 10470 10471 10475 10478 10479 10480 10480 10479 10480 10480 10480 10480 10482 10485 10489 10490 10489 10490 10492 10494 10495 10495 10495 10495 10496 10498 10499 10497 10497 10496 10497
10371 10378 10380 10378 10378 10379 10381 10384 10387 10387 10387 10389 10393 10394 10395 10394 10391 10390 10397 10405 10408 10409 10413 10416 10417 10418 10419 10421 10422 10424 10425 10427 10429 10431 10433 10435 10437 10438 10441 10444 10447 10451 10453 10454 10456 10458 10459 10458 10454 10451 10450 10452 10455 10458 10459 10461 10463 10463 10464 10468 10469 10470 10471 10472 10471 10473 10473 10473 10474 10475 10478 10482 10483 10482 10483 10485 10486 10488 10488 10488 10488 10488 10489 10490 10490 10490 10489 10488
10361 10367 10370 10369 10366 10367 10370 10373 10375 10375 10377 10382 10385 10386 10388 10388 10385 10384 10390 10399 10402 10403 10407 10409 10409 10410 10412 10414 10416 10417 10419 10421 10423 10425 10425 10426 10428 10429 10433 10438 10441 10443 10445 10447 10448 10451 10452 10452 10450 10447 10444 10445 10448 10452 10452 10452 10454 10456 10458 10461 10461 10461 10462 10463 10463 10464 10464 10466 10467 10468 10471 10474 10475 10476 10478 10479 10479 10480 10481 10481 10481 10481 10481 10482 10483 10483 10482 10481
10351 10356 10359 10357 10353 10353 10357 10360 10363 10364 10368 10373 10375 10378 10381 10381 10379 10379 10384 10391 10395 10397 10400 10402 10401 10402 10405 10407 10409 10411 10412 10414 10417 10418 10417 10419 10420 10421 10425 10430 10432 10434 10436 10438 10439 10441 10442 10444 10444 10442 10439 10437 10440 10444 10444 10442 10443 10445 10448 10452 10453 10453 10454 10455 10455 10456 10456 10457 10459 10461 10464 10466 10467 10469 10471 10472 10472 10472 10472 10473 10473 10474 10474 10475 10475 10475 10474 10473
10341 10345 10347 10346 10341 10341 10345 10349 10353 10354 10357 10363 10367 10371 10374 10374 10373 10375 10378 10383 10387 10390 10392 10394 10395 10396 10398 10400 10402 10403 10405 10408 10410 10411 10412 10412 10413 10414 10418 10422 10424 10425 10427 10429 10430 10431 10432 10434 10436 10435 10432 10431 10431 10433 10434 10433 10433 10433 10435 10440 10444 10446 10447 10447 10448 10448 10449 10450 10450 10452 10456 10458 10459 10461 10462 10463 10463 10464 10465 10466 10467 10467 10467 10467 10467 10467 10466 10465
10332 10334 10335 10334 10333 10332 10334 10339 10342 10343 10347 10355 10360 10363 10366 10366 10365 10368 10371 10374 10378 10382 10383 10385 10387 10389 10391 10394 10395 10395 10398 10401 10403 10405 10406 10406 10406 10408 10412 10415 10417 10418 10419 10420 10421 10422 10423 10424 10426 10427 10425 10424 10423 10423 10424 10424 10424 10423 10425 10429 10434 10438 10440 10441 10441 10441 10442 10441 10440 10443 10446 10448 10450 10452 10453 10453 10455 10456 10458 10458 10458 10459 10459 10460 10459 10459 10458 10457
10323 10324 10324 10325 10325 10326 10327 10330 10331 10333 10338 10345 10349 10353 10357 10357 10358 10360 10364 10366 10369 10373 10375 10377 10380 10381 10384 10387 10388 10389 10391 10393 10396 10398 10400 10400 10400 10402 10405 10408 10410 10411 10411 10411 10412 10413 10414 10415 10417 10418 10417 10416 10416 10415 10416 10416 10415 10415 10416 10419 10424 10429 10432 10434 10434 10434 10434 10433 10432 10433 10436 10437 10440 10443 10443 10444 10446 10447 10448 10448 10449 10449 10450 10450 10451 10451 10450 10449
10314 10315 10316 10317 10318 10319 10320 10322 10323 10324 10328 10334 10338 10343 10347 10349 10349 10352 10356 10358 10360 10364 10368 10370 10372 10374 10376 10379 10381 10382 10384 10386 10388 10391 10393 10394 10394 10396 10398 10401 10403 10404 10404 10404 10404 10405 10406 10407 10409 10410 10409 10409 10409 10409 10410 10409 10408 10408 10409 10410 10415 10420 10424 10425 10426 10426 10425 10424 10423 10424 10425 10427 10431 10433 10434 10435 10437 10438 10438 10439 10440 10440 10440 10441 10441 10441 10441 10441
10307 10308 10309 10310 10312 10313 10314 10315 10316 10316 10319 10324 10329 10333 10337 10340 10341 10343 10346 10350 10352 10356 10360 10362 10365 10366 10368 10371 10374 10376 10377 10378 10381 10383 10386 10387 10388 10390 10392 10394 10395 10396 10397 10397 10397 10398 10399 10400 10401 10402 10402 10403 10404 10404 10404 10403 10402 10402 10403 10404 10407 10410 10413 10415 10417 10417 10416 10415 10414 10415 10416 10418 10421 10423 10424 10425 10427 10428 10428 10429 10431 10431 10431 10431 10431 10431 10432 10432
10301 10302 10303 10304 10306 10307 10308 10309 10310 10310 10311 10315 10321 10326 10328 10331 10333 10335 10338 10342 10345 10348 10352 10354 10357 10358 10360 10362 10365 10368 10370 10371 10372 10374 10377 10379 10381 10383 10385 10386 10387 10388 10389 10390 10390 10391 10393 10394 10394 10396 10396 10397 10398 10398 10398 10397 10396 10397 10399 10400 10401 10401 10403 10405 10406 10407 10407 10407 10407 10407 10408 10409 10411 10413 10415 10416 10417 10418 10419 10420 10421 10421 10422 10422 10422 10422 10422 10423